Time,TemperatureF,DewpointF,PressureIn,WindDirection,WindDirectionDegrees,WindSpeedMPH,WindSpeedGustMPH,Humidity,HourlyPrecipIn,Conditions,Clouds,dailyrainin,SoftwareType,DateUTC
2013-01-25 00:00:00,21.6,3.9,30.35,ENE,65,1.1,1.1,46,0.00,FEW,,0.00,WeatherDisplay:10.37,2013-01-25 05:00:00,
2013-01-25 00:02:00,21.6,3.9,30.35,ENE,65,1.1,1.1,46,0.00,FEW,,0.00,WeatherDisplay:10.37,2013-01-25 05:02:00,
2013-01-25 00:03:00,21.6,3.9,30.35,ENE,65,1.1,1.1,46,0.00,FEW,,0.00,WeatherDisplay:10.37,2013-01-25 05:03:00,
2013-01-25 00:08:00,21.4,3.8,30.34,ENE,65,7.1,9.2,46,0.00,BKN,,0.00,WeatherDisplay:10.37,2013-01-25 05:08:00,
2013-01-25 00:13:00,21.4,4.2,30.33,ENE,65,4.0,4.0,47,0.00,BKN,,0.00,WeatherDisplay:10.37,2013-01-25 05:13:00,
2013-01-25 00:18:00,21.6,3.9,30.33,ENE,65,2.5,2.5,46,0.00,BKN,,0.00,WeatherDisplay:10.37,2013-01-25 05:18:00,
2013-01-25 00:23:00,21.4,4.2,30.34,ENE,65,2.8,4.6,47,0.00,BKN,,0.00,WeatherDisplay:10.37,2013-01-25 05:23:00,
2013-01-25 00:28:00,21.4,4.2,30.33,East,87,3.1,3.5,47,0.00,BKN,,0.00,WeatherDisplay:10.37,2013-01-25 05:28:00,
2013-01-25 00:33:00,21.4,4.2,30.32,ESE,109,2.3,4.7,47,0.00,BKN,,0.00,WeatherDisplay:10.37,2013-01-25 05:33:00,
2013-01-25 00:38:00,21.4,4.2,30.31,ENE,65,5.4,6.9,47,0.00,BKN,,0.00,WeatherDisplay:10.37,2013-01-25 05:38:00,
2013-01-25 00:43:00,21.4,4.2,30.31,ESE,109,10.3,10.4,47,0.00,BKN,,0.00,WeatherDisplay:10.37,2013-01-25 05:43:00,
2013-01-25 00:48:00,21.4,4.2,30.31,ENE,65,4.0,4.5,47,0.00,BKN,,0.00,WeatherDisplay:10.37,2013-01-25 05:48:00,
2013-01-25 00:53:00,21.4,4.2,30.33,ESE,109,3.6,3.8,47,0.00,BKN,,0.00,WeatherDisplay:10.37,2013-01-25 05:53:00,
2013-01-25 00:58:00,21.4,4.2,30.32,ESE,109,0.0,0.0,47,0.00,BKN,,0.00,WeatherDisplay:10.37,2013-01-25 05:58:00,
2013-01-25 01:03:00,21.4,4.2,30.31,ESE,109,2.9,3.8,47,0.00,BKN,,0.00,WeatherDisplay:10.37,2013-01-25 06:03:00,
2013-01-25 01:08:00,21.4,4.2,30.31,SSE,155,2.4,3.5,47,0.00,BKN,,0.00,WeatherDisplay:10.37,2013-01-25 06:08:00,
2013-01-25 01:13:00,21.4,4.2,30.31,NE,42,2.9,3.5,47,0.00,BKN,,0.00,WeatherDisplay:10.37,2013-01-25 06:13:00,
2013-01-25 01:18:00,21.4,4.2,30.31,East,87,3.8,4.6,47,0.00,BKN,,0.00,WeatherDisplay:10.37,2013-01-25 06:18:00,
2013-01-25 01:23:00,21.6,4.4,30.30,East,87,3.3,3.5,47,0.00,BKN,,0.00,WeatherDisplay:10.37,2013-01-25 06:23:00,
2013-01-25 01:28:00,21.6,4.4,30.31,ESE,109,1.6,1.6,47,0.00,BKN,,0.00,WeatherDisplay:10.37,2013-01-25 06:28:00,
2013-01-25 01:33:00,21.7,4.6,30.29,ESE,109,0.0,0.0,47,0.00,BKN,,0.00,WeatherDisplay:10.37,2013-01-25 06:33:00,
2013-01-25 01:38:00,21.7,4.6,30.29,ENE,65,5.9,5.9,47,0.00,BKN,,0.00,WeatherDisplay:10.37,2013-01-25 06:38:00,
2013-01-25 01:43:00,21.9,5.2,30.28,ESE,109,0.0,0.0,48,0.00,BKN,,0.00,WeatherDisplay:10.37,2013-01-25 06:43:00,
2013-01-25 01:48:00,21.9,5.2,30.28,ESE,109,4.7,6.3,48,0.00,BKN,,0.00,WeatherDisplay:10.37,2013-01-25 06:48:00,
2013-01-25 01:53:00,21.9,5.2,30.29,ESE,109,2.7,3.5,48,0.00,BKN,,0.00,WeatherDisplay:10.37,2013-01-25 06:53:00,
2013-01-25 01:58:00,22.1,5.4,30.28,SE,132,0.0,0.0,48,0.00,BKN,,0.00,WeatherDisplay:10.37,2013-01-25 06:58:00,
2013-01-25 02:03:00,22.3,5.5,30.28,East,87,3.6,3.6,48,0.00,BKN,,0.00,WeatherDisplay:10.37,2013-01-25 07:03:00,
2013-01-25 02:08:00,22.3,5.5,30.28,East,87,4.1,5.8,48,0.00,OVC,,0.00,WeatherDisplay:10.37,2013-01-25 07:08:00,
2013-01-25 02:13:00,22.5,5.7,30.28,NNE,19,1.3,2.5,48,0.00,OVC,,0.00,WeatherDisplay:10.37,2013-01-25 07:13:00,
2013-01-25 02:18:00,22.5,5.7,30.28,ENE,65,0.4,1.1,48,0.00,OVC,,0.00,WeatherDisplay:10.37,2013-01-25 07:18:00,
2013-01-25 02:23:00,22.6,5.4,30.27,NE,42,3.1,3.5,47,0.00,OVC,,0.00,WeatherDisplay:10.37,2013-01-25 07:23:00,
2013-01-25 02:28:00,22.6,5.4,30.28,ENE,65,1.6,1.6,47,0.00,OVC,,0.00,WeatherDisplay:10.37,2013-01-25 07:28:00,
2013-01-25 02:33:00,22.8,6.0,30.27,ENE,65,0.0,0.0,48,0.00,OVC,,0.00,WeatherDisplay:10.37,2013-01-25 07:33:00,
2013-01-25 02:38:00,22.8,6.0,30.27,ESE,109,2.7,3.6,48,0.00,OVC,,0.00,WeatherDisplay:10.37,2013-01-25 07:38:00,
2013-01-25 02:43:00,22.8,5.6,30.25,ESE,109,4.7,4.7,47,0.00,OVC,,0.00,WeatherDisplay:10.37,2013-01-25 07:43:00,
2013-01-25 02:48:00,23.0,5.7,30.25,SE,132,3.9,4.7,47,0.00,OVC,,0.00,WeatherDisplay:10.37,2013-01-25 07:48:00,
2013-01-25 02:53:00,23.0,5.7,30.24,East,87,3.1,3.5,47,0.00,OVC,,0.00,WeatherDisplay:10.37,2013-01-25 07:53:00,
2013-01-25 02:58:00,23.0,5.7,30.24,SSE,155,5.4,5.8,47,0.00,OVC,,0.00,WeatherDisplay:10.37,2013-01-25 07:58:00,
2013-01-25 03:03:00,23.0,5.7,30.25,ESE,109,3.1,4.6,47,0.00,OVC,,0.00,WeatherDisplay:10.37,2013-01-25 08:03:00,
2013-01-25 03:08:00,23.2,5.9,30.26,SE,132,4.7,5.8,47,0.00,OVC,,0.00,WeatherDisplay:10.37,2013-01-25 08:08:00,
2013-01-25 03:13:00,23.2,5.9,30.25,ENE,65,0.1,2.5,47,0.00,OVC,,0.00,WeatherDisplay:10.37,2013-01-25 08:13:00,
2013-01-25 03:18:00,23.2,5.9,30.24,SE,132,2.6,3.5,47,0.00,OVC,,0.00,WeatherDisplay:10.37,2013-01-25 08:18:00,
2013-01-25 03:23:00,23.4,6.1,30.24,NNE,19,1.8,3.5,47,0.00,OVC,,0.00,WeatherDisplay:10.37,2013-01-25 08:23:00,
2013-01-25 03:29:00,23.4,6.1,30.24,ESE,109,4.4,4.6,47,0.00,OVC,,0.00,WeatherDisplay:10.37,2013-01-25 08:29:00,
2013-01-25 03:34:00,23.4,6.1,30.23,SE,132,2.1,2.3,47,0.00,OVC,,0.00,WeatherDisplay:10.37,2013-01-25 08:34:00,
2013-01-25 03:39:00,23.4,6.1,30.22,East,87,6.7,6.9,47,0.00,OVC,,0.00,WeatherDisplay:10.37,2013-01-25 08:39:00,
2013-01-25 03:44:00,23.5,6.2,30.21,East,87,3.9,4.5,47,0.00,OVC,,0.00,WeatherDisplay:10.37,2013-01-25 08:44:00,
2013-01-25 03:49:00,23.5,6.7,30.21,East,87,3.6,3.6,48,0.00,OVC,,0.00,WeatherDisplay:10.37,2013-01-25 08:49:00,
2013-01-25 03:54:00,23.5,6.7,30.21,ESE,109,3.1,3.5,48,0.00,OVC,,0.00,WeatherDisplay:10.37,2013-01-25 08:54:00,
2013-01-25 03:59:00,23.5,6.7,30.21,NE,42,6.1,6.9,48,0.00,OVC,,0.00,WeatherDisplay:10.37,2013-01-25 08:59:00,
2013-01-25 04:04:00,23.5,6.7,30.20,SE,132,4.3,4.6,48,0.00,OVC,,0.00,WeatherDisplay:10.37,2013-01-25 09:04:00,
2013-01-25 04:09:00,23.5,6.7,30.18,ENE,65,3.1,4.6,48,0.00,-SN,,0.00,WeatherDisplay:10.37,2013-01-25 09:09:00,
2013-01-25 04:14:00,23.5,7.2,30.18,ENE,65,3.6,3.6,49,0.00,-SN,,0.00,WeatherDisplay:10.37,2013-01-25 09:14:00,
2013-01-25 04:19:00,23.5,7.2,30.19,ESE,109,2.7,2.7,49,0.00,-SN,,0.00,WeatherDisplay:10.37,2013-01-25 09:19:00,
2013-01-25 04:24:00,23.5,7.6,30.19,SE,132,2.2,3.5,50,0.00,-SN,,0.00,WeatherDisplay:10.37,2013-01-25 09:24:00,
2013-01-25 04:29:00,23.5,8.5,30.19,ENE,65,0.6,3.8,52,0.00,-SN,,0.00,WeatherDisplay:10.37,2013-01-25 09:29:00,
2013-01-25 04:34:00,23.5,8.9,30.19,ENE,65,3.8,3.8,53,0.00,-SN,,0.00,WeatherDisplay:10.37,2013-01-25 09:34:00,
2013-01-25 04:39:00,23.5,8.9,30.19,East,87,2.5,2.5,53,0.00,-SN,,0.00,WeatherDisplay:10.37,2013-01-25 09:39:00,
2013-01-25 04:44:00,23.5,9.3,30.19,East,87,0.0,0.0,54,0.00,-SN,,0.00,WeatherDisplay:10.37,2013-01-25 09:44:00,
2013-01-25 04:49:00,23.4,9.6,30.19,North,357,0.0,3.5,55,0.00,-SN,,0.00,WeatherDisplay:10.37,2013-01-25 09:49:00,
2013-01-25 04:54:00,23.4,9.6,30.19,East,87,2.5,2.5,55,0.00,-SN,,0.00,WeatherDisplay:10.37,2013-01-25 09:54:00,
2013-01-25 04:59:00,23.2,9.8,30.19,ESE,109,0.0,0.0,56,0.00,-SN,,0.00,WeatherDisplay:10.37,2013-01-25 09:59:00,
2013-01-25 05:04:00,23.2,10.2,30.18,East,87,5.8,5.8,57,0.00,-SN,,0.00,WeatherDisplay:10.37,2013-01-25 10:04:00,
2013-01-25 05:09:00,23.2,10.2,30.18,ENE,65,1.1,1.1,57,0.00,-SN,,0.00,WeatherDisplay:10.37,2013-01-25 10:09:00,
2013-01-25 05:14:00,23.2,11.0,30.18,NNE,19,2.0,3.5,59,0.00,-SN,,0.00,WeatherDisplay:10.37,2013-01-25 10:14:00,
2013-01-25 05:19:00,23.4,11.1,30.18,ENE,65,1.7,2.3,59,0.00,-SN,,0.00,WeatherDisplay:10.37,2013-01-25 10:19:00,
2013-01-25 05:24:00,23.4,11.5,30.18,North,357,2.7,2.7,60,0.00,-SN,,0.00,WeatherDisplay:10.37,2013-01-25 10:24:00,
2013-01-25 05:29:00,23.4,11.5,30.18,ENE,65,1.7,2.7,60,0.00,-SN,,0.00,WeatherDisplay:10.37,2013-01-25 10:29:00,
2013-01-25 05:34:00,23.4,11.9,30.17,East,87,2.0,2.3,61,0.00,-SN,,0.00,WeatherDisplay:10.37,2013-01-25 10:34:00,
2013-01-25 05:39:00,23.4,11.9,30.16,NE,42,1.1,1.1,61,0.00,-SN,,0.00,WeatherDisplay:10.37,2013-01-25 10:39:00,
2013-01-25 05:44:00,23.2,12.1,30.16,ENE,65,3.3,3.5,62,0.00,-SN,,0.00,WeatherDisplay:10.37,2013-01-25 10:44:00,
2013-01-25 05:49:00,23.2,12.1,30.16,ESE,109,2.5,2.5,62,0.00,-SN,,0.00,WeatherDisplay:10.37,2013-01-25 10:49:00,
2013-01-25 05:54:00,23.0,11.9,30.15,SE,132,4.5,4.6,62,0.00,-SN,,0.00,WeatherDisplay:10.37,2013-01-25 10:54:00,
2013-01-25 05:59:00,22.8,12.1,30.14,SE,132,4.1,5.8,63,0.00,-SN,,0.00,WeatherDisplay:10.37,2013-01-25 10:59:00,
2013-01-25 06:04:00,22.8,12.5,30.15,ESE,109,2.0,2.3,64,0.00,-SN,,0.00,WeatherDisplay:10.37,2013-01-25 11:04:00,
2013-01-25 06:09:00,22.8,12.5,30.15,East,87,2.5,2.5,64,0.00,OVC,,0.00,WeatherDisplay:10.37,2013-01-25 11:09:00,
2013-01-25 06:14:00,22.8,12.5,30.15,ENE,65,5.0,6.9,64,0.00,OVC,,0.00,WeatherDisplay:10.37,2013-01-25 11:14:00,
2013-01-25 06:19:00,22.8,12.5,30.14,East,87,2.5,3.5,64,0.00,OVC,,0.00,WeatherDisplay:10.37,2013-01-25 11:19:00,
2013-01-25 06:24:00,22.6,12.6,30.13,ESE,109,4.0,4.6,65,0.00,OVC,,0.00,WeatherDisplay:10.37,2013-01-25 11:24:00,
2013-01-25 06:29:00,22.6,12.6,30.12,ENE,65,1.3,2.3,65,0.00,OVC,,0.00,WeatherDisplay:10.37,2013-01-25 11:29:00,
2013-01-25 06:34:00,22.6,13.0,30.11,SE,132,4.9,4.9,66,0.00,OVC,,0.00,WeatherDisplay:10.37,2013-01-25 11:34:00,
2013-01-25 06:39:00,22.6,13.0,30.12,ENE,65,0.1,3.4,66,0.00,OVC,,0.00,WeatherDisplay:10.37,2013-01-25 11:39:00,
2013-01-25 06:44:00,22.6,12.6,30.12,ENE,65,2.5,3.5,65,0.00,OVC,,0.00,WeatherDisplay:10.37,2013-01-25 11:44:00,
2013-01-25 06:49:00,22.6,13.0,30.11,East,87,6.3,6.3,66,0.00,OVC,,0.00,WeatherDisplay:10.37,2013-01-25 11:49:00,
2013-01-25 06:54:00,22.6,13.0,30.12,ENE,65,5.8,5.8,66,0.00,OVC,,0.00,WeatherDisplay:10.37,2013-01-25 11:54:00,
2013-01-25 06:59:00,22.6,13.0,30.12,NE,42,0.7,2.3,66,0.00,OVC,,0.00,WeatherDisplay:10.37,2013-01-25 11:59:00,
2013-01-25 07:04:00,22.8,13.2,30.13,ENE,65,1.3,1.3,66,0.00,OVC,,0.00,WeatherDisplay:10.37,2013-01-25 12:04:00,
2013-01-25 07:09:00,22.8,13.5,30.12,ESE,109,0.0,0.0,67,0.00,OVC,,0.00,WeatherDisplay:10.37,2013-01-25 12:09:00,
2013-01-25 07:14:00,23.2,14.5,30.12,East,87,1.2,2.3,69,0.00,OVC,,0.00,WeatherDisplay:10.37,2013-01-25 12:14:00,
2013-01-25 07:19:00,23.2,14.5,30.12,NE,42,3.8,3.8,69,0.00,OVC,,0.00,WeatherDisplay:10.37,2013-01-25 12:19:00,
2013-01-25 07:24:00,23.4,15.0,30.12,ESE,109,1.6,3.5,70,0.00,OVC,,0.00,WeatherDisplay:10.37,2013-01-25 12:24:00,
2013-01-25 07:29:00,23.5,15.5,30.12,ESE,109,3.5,3.8,71,0.00,OVC,,0.00,WeatherDisplay:10.37,2013-01-25 12:29:00,
2013-01-25 07:34:00,23.7,15.7,30.11,East,87,1.1,1.1,71,0.00,OVC,,0.00,WeatherDisplay:10.37,2013-01-25 12:34:00,
2013-01-25 07:39:00,23.7,15.7,30.12,ENE,65,1.3,4.6,71,0.00,OVC,,0.00,WeatherDisplay:10.37,2013-01-25 12:39:00,
2013-01-25 07:44:00,23.7,15.7,30.11,ESE,109,1.2,2.3,71,0.00,OVC,,0.00,WeatherDisplay:10.37,2013-01-25 12:44:00,
2013-01-25 07:49:00,23.7,16.0,30.11,ESE,109,2.2,2.3,72,0.00,OVC,,0.00,WeatherDisplay:10.37,2013-01-25 12:49:00,
2013-01-25 07:54:00,23.9,16.2,30.10,East,87,0.0,4.9,72,0.00,OVC,,0.00,WeatherDisplay:10.37,2013-01-25 12:54:00,
2013-01-25 07:59:00,24.1,16.7,30.10,North,357,2.7,3.5,73,0.00,OVC,,0.00,WeatherDisplay:10.37,2013-01-25 12:59:00,
2013-01-25 08:04:00,24.1,16.7,30.09,SE,132,3.4,3.5,73,0.00,OVC,,0.00,WeatherDisplay:10.37,2013-01-25 13:04:00,
2013-01-25 08:09:00,24.4,17.0,30.09,SE,132,2.0,4.6,73,0.00,OVC,,0.00,WeatherDisplay:10.37,2013-01-25 13:09:00,
2013-01-25 08:14:00,24.6,17.2,30.09,SSE,155,2.0,3.5,73,0.00,OVC,,0.00,WeatherDisplay:10.37,2013-01-25 13:14:00,
2013-01-25 08:19:00,24.6,17.2,30.10,SSW,199,0.0,2.3,73,0.00,OVC,,0.00,WeatherDisplay:10.37,2013-01-25 13:19:00,
2013-01-25 08:24:00,24.6,17.2,30.08,ESE,109,0.0,3.6,73,0.00,OVC,,0.00,WeatherDisplay:10.37,2013-01-25 13:24:00,
2013-01-25 08:29:00,24.6,17.2,30.08,East,87,0.0,0.0,73,0.00,OVC,,0.00,WeatherDisplay:10.37,2013-01-25 13:29:00,
2013-01-25 08:34:00,24.6,17.2,30.08,South,177,0.0,0.0,73,0.00,OVC,,0.00,WeatherDisplay:10.37,2013-01-25 13:34:00,
2013-01-25 08:39:00,24.6,17.2,30.10,West,267,0.0,0.0,73,0.00,OVC,,0.00,WeatherDisplay:10.37,2013-01-25 13:39:00,
2013-01-25 08:44:00,24.6,17.2,30.10,ESE,109,0.6,1.1,73,0.00,OVC,,0.00,WeatherDisplay:10.37,2013-01-25 13:44:00,
2013-01-25 08:49:00,24.6,17.5,30.11,ESE,109,0.0,0.0,74,0.00,OVC,,0.00,WeatherDisplay:10.37,2013-01-25 13:49:00,
2013-01-25 08:54:00,24.6,17.5,30.10,East,87,1.1,1.1,74,0.00,OVC,,0.00,WeatherDisplay:10.37,2013-01-25 13:54:00,
2013-01-25 08:59:00,25.0,17.9,30.08,SE,132,1.1,1.1,74,0.00,OVC,,0.00,WeatherDisplay:10.37,2013-01-25 13:59:00,
2013-01-25 09:04:00,25.2,18.0,30.07,SE,132,1.3,1.3,74,0.00,OVC,,0.00,WeatherDisplay:10.37,2013-01-25 14:04:00,
2013-01-25 09:09:00,25.5,18.4,30.08,SSW,199,0.0,0.0,74,0.00,OVC,,0.00,WeatherDisplay:10.37,2013-01-25 14:09:00,
2013-01-25 09:14:00,25.5,18.4,30.09,SE,132,0.0,0.0,74,0.00,OVC,,0.00,WeatherDisplay:10.37,2013-01-25 14:14:00,
2013-01-25 09:19:00,25.3,18.2,30.09,East,87,0.0,0.0,74,0.00,OVC,,0.00,WeatherDisplay:10.37,2013-01-25 14:19:00,
2013-01-25 09:24:00,25.5,18.4,30.09,North,357,0.0,0.0,74,0.00,OVC,,0.00,WeatherDisplay:10.37,2013-01-25 14:24:00,
2013-01-25 09:29:00,25.3,18.2,30.09,ESE,109,0.0,0.0,74,0.00,OVC,,0.00,WeatherDisplay:10.37,2013-01-25 14:29:00,
2013-01-25 09:34:00,25.5,18.4,30.09,NNW,335,0.0,0.0,74,0.00,OVC,,0.00,WeatherDisplay:10.37,2013-01-25 14:34:00,
2013-01-25 09:39:00,25.5,18.7,30.09,ENE,65,0.0,0.0,75,0.00,OVC,,0.00,WeatherDisplay:10.37,2013-01-25 14:39:00,
2013-01-25 09:44:00,25.5,18.7,30.08,NE,42,0.0,0.0,75,0.00,OVC,,0.00,WeatherDisplay:10.37,2013-01-25 14:44:00,
2013-01-25 09:49:00,25.5,18.7,30.08,SE,132,0.0,0.0,75,0.00,OVC,,0.00,WeatherDisplay:10.37,2013-01-25 14:49:00,
2013-01-25 09:54:00,25.9,19.4,30.09,NW,312,0.0,1.3,76,0.00,OVC,,0.00,WeatherDisplay:10.37,2013-01-25 14:54:00,
2013-01-25 09:59:00,25.7,19.2,30.08,SSE,155,0.0,0.0,76,0.00,OVC,,0.00,WeatherDisplay:10.37,2013-01-25 14:59:00,
2013-01-25 10:04:00,26.1,19.5,30.10,SW,222,0.0,0.0,76,0.00,OVC,,0.00,WeatherDisplay:10.37,2013-01-25 15:04:00,
2013-01-25 10:09:00,26.2,19.7,30.08,SSW,199,1.1,1.1,76,0.00,OVC,,0.00,WeatherDisplay:10.37,2013-01-25 15:09:00,
2013-01-25 10:14:00,26.4,19.9,30.07,SW,222,0.8,2.3,76,0.00,OVC,,0.00,WeatherDisplay:10.37,2013-01-25 15:14:00,
2013-01-25 10:19:00,26.4,19.9,30.08,SW,222,2.0,2.3,76,0.00,OVC,,0.00,WeatherDisplay:10.37,2013-01-25 15:19:00,
2013-01-25 10:24:00,26.6,20.1,30.08,WSW,245,0.0,0.0,76,0.00,OVC,,0.00,WeatherDisplay:10.37,2013-01-25 15:24:00,
2013-01-25 10:29:00,26.8,20.2,30.08,SSE,155,0.0,0.0,76,0.00,OVC,,0.00,WeatherDisplay:10.37,2013-01-25 15:29:00,
2013-01-25 10:34:00,27.1,20.6,30.09,SSW,199,1.8,2.3,76,0.00,OVC,,0.00,WeatherDisplay:10.37,2013-01-25 15:34:00,
2013-01-25 10:39:00,27.1,20.6,30.09,SW,222,1.5,1.6,76,0.00,OVC,,0.00,WeatherDisplay:10.37,2013-01-25 15:39:00,
2013-01-25 10:44:00,27.1,20.6,30.10,West,267,3.0,3.5,76,0.00,OVC,,0.00,WeatherDisplay:10.37,2013-01-25 15:44:00,
2013-01-25 10:49:00,27.1,20.6,30.10,WSW,245,0.0,0.0,76,0.00,OVC,,0.00,WeatherDisplay:10.37,2013-01-25 15:49:00,
2013-01-25 10:54:00,27.3,20.8,30.09,SW,222,0.1,1.8,76,0.00,OVC,,0.00,WeatherDisplay:10.37,2013-01-25 15:54:00,
2013-01-25 10:59:00,27.3,20.8,30.10,SW,222,0.5,1.3,76,0.00,OVC,,0.00,WeatherDisplay:10.37,2013-01-25 15:59:00,
2013-01-25 11:04:00,27.3,20.8,30.09,South,177,0.0,0.0,76,0.00,OVC,,0.00,WeatherDisplay:10.37,2013-01-25 16:04:00,
2013-01-25 11:09:00,27.5,20.9,30.09,SW,222,0.0,0.0,76,0.00,OVC,,0.00,WeatherDisplay:10.37,2013-01-25 16:09:00,
2013-01-25 11:14:00,27.7,21.1,30.10,WSW,245,0.0,0.0,76,0.00,OVC,,0.00,WeatherDisplay:10.37,2013-01-25 16:14:00,
2013-01-25 11:19:00,28.0,21.4,30.10,SW,222,2.9,3.5,76,0.00,OVC,,0.00,WeatherDisplay:10.37,2013-01-25 16:19:00,
2013-01-25 11:24:00,28.2,21.6,30.09,SW,222,4.8,4.8,76,0.00,OVC,,0.00,WeatherDisplay:10.37,2013-01-25 16:24:00,
2013-01-25 11:29:00,28.2,21.6,30.09,SW,222,1.7,3.5,76,0.00,OVC,,0.00,WeatherDisplay:10.37,2013-01-25 16:29:00,
2013-01-25 11:34:00,28.6,22.0,30.08,SW,222,0.9,1.1,76,0.00,OVC,,0.00,WeatherDisplay:10.37,2013-01-25 16:34:00,
2013-01-25 11:39:00,28.6,22.3,30.09,WSW,245,1.1,1.1,77,0.00,OVC,,0.00,WeatherDisplay:10.37,2013-01-25 16:39:00,
2013-01-25 11:44:00,28.6,22.3,30.09,WSW,245,1.8,2.3,77,0.00,OVC,,0.00,WeatherDisplay:10.37,2013-01-25 16:44:00,
2013-01-25 11:49:00,28.2,21.9,30.09,West,267,3.1,3.5,77,0.00,OVC,,0.00,WeatherDisplay:10.37,2013-01-25 16:49:00,
2013-01-25 11:54:00,28.2,21.9,30.09,West,267,0.1,1.6,77,0.00,OVC,,0.00,WeatherDisplay:10.37,2013-01-25 16:54:00,
2013-01-25 11:59:00,28.0,21.8,30.09,West,267,0.2,2.3,77,0.00,OVC,,0.00,WeatherDisplay:10.37,2013-01-25 16:59:00,
2013-01-25 12:04:00,28.0,22.1,30.09,West,267,3.6,3.6,78,0.00,OVC,,0.00,WeatherDisplay:10.37,2013-01-25 17:04:00,
2013-01-25 12:09:00,28.0,22.1,30.09,West,267,0.2,3.5,78,0.00,OVC,,0.00,WeatherDisplay:10.37,2013-01-25 17:09:00,
2013-01-25 12:14:00,28.0,22.4,30.09,West,267,4.2,5.8,79,0.00,OVC,,0.00,WeatherDisplay:10.37,2013-01-25 17:14:00,
2013-01-25 12:19:00,28.0,22.4,30.10,WSW,245,1.1,1.1,79,0.00,OVC,,0.00,WeatherDisplay:10.37,2013-01-25 17:19:00,
2013-01-25 12:24:00,28.2,22.5,30.09,West,267,1.0,1.3,79,0.00,OVC,,0.00,WeatherDisplay:10.37,2013-01-25 17:24:00,
2013-01-25 12:29:00,28.2,22.5,30.09,West,267,3.9,3.9,79,0.00,OVC,,0.00,WeatherDisplay:10.37,2013-01-25 17:29:00,
2013-01-25 12:34:00,28.2,22.5,30.09,SW,222,2.0,2.3,79,0.00,OVC,,0.00,WeatherDisplay:10.37,2013-01-25 17:34:00,
2013-01-25 12:39:00,28.4,22.7,30.09,NW,312,0.3,4.0,79,0.00,OVC,,0.00,WeatherDisplay:10.37,2013-01-25 17:39:00,
2013-01-25 12:44:00,28.2,22.8,30.09,WSW,245,7.2,8.1,80,0.00,OVC,,0.00,WeatherDisplay:10.37,2013-01-25 17:44:00,
2013-01-25 12:49:00,28.2,22.8,30.09,West,267,2.0,2.3,80,0.00,OVC,,0.00,WeatherDisplay:10.37,2013-01-25 17:49:00,
2013-01-25 12:54:00,28.2,22.8,30.08,West,267,2.2,2.3,80,0.00,OVC,,0.00,WeatherDisplay:10.37,2013-01-25 17:54:00,
2013-01-25 12:59:00,28.2,22.8,30.08,WNW,289,2.6,4.9,80,0.00,OVC,,0.00,WeatherDisplay:10.37,2013-01-25 17:59:00,
2013-01-25 13:04:00,28.2,22.8,30.09,West,267,2.5,2.5,80,0.00,OVC,,0.00,WeatherDisplay:10.37,2013-01-25 18:04:00,
2013-01-25 13:09:00,28.2,22.8,30.08,SW,222,2.9,3.5,80,0.00,-SN,,0.00,WeatherDisplay:10.37,2013-01-25 18:09:00,
2013-01-25 13:14:00,28.2,23.1,30.08,WSW,245,4.4,5.8,81,0.00,-SN,,0.00,WeatherDisplay:10.37,2013-01-25 18:14:00,
2013-01-25 13:19:00,28.6,23.5,30.09,WNW,289,4.5,4.6,81,0.00,-SN,,0.00,WeatherDisplay:10.37,2013-01-25 18:19:00,
2013-01-25 13:24:00,28.6,23.5,30.08,West,267,9.8,10.4,81,0.00,-SN,,0.00,WeatherDisplay:10.37,2013-01-25 18:24:00,
2013-01-25 13:29:00,28.6,23.5,30.08,WNW,289,2.9,6.9,81,0.00,-SN,,0.00,WeatherDisplay:10.37,2013-01-25 18:29:00,
2013-01-25 13:34:00,28.6,23.5,30.07,West,267,0.0,0.0,81,0.00,-SN,,0.00,WeatherDisplay:10.37,2013-01-25 18:34:00,
2013-01-25 13:39:00,28.8,23.7,30.07,WSW,245,5.4,5.8,81,0.00,-SN,,0.00,WeatherDisplay:10.37,2013-01-25 18:39:00,
2013-01-25 13:44:00,29.1,24.0,30.08,SW,222,3.6,4.6,81,0.00,-SN,,0.00,WeatherDisplay:10.37,2013-01-25 18:44:00,
2013-01-25 13:49:00,29.1,23.7,30.07,WNW,289,4.5,4.6,80,0.00,-SN,,0.00,WeatherDisplay:10.37,2013-01-25 18:49:00,
2013-01-25 13:54:00,29.3,23.9,30.08,West,267,3.5,3.5,80,0.00,-SN,,0.00,WeatherDisplay:10.37,2013-01-25 18:54:00,
2013-01-25 13:59:00,29.5,24.1,30.07,West,267,3.6,4.6,80,0.00,-SN,,0.00,WeatherDisplay:10.37,2013-01-25 18:59:00,
2013-01-25 14:04:00,29.8,24.4,30.07,West,267,3.8,3.8,80,0.00,-SN,,0.00,WeatherDisplay:10.37,2013-01-25 19:04:00,
2013-01-25 14:09:00,30.0,24.3,30.07,NW,312,4.3,8.1,79,0.00,OVC,,0.00,WeatherDisplay:10.37,2013-01-25 19:09:00,
2013-01-25 14:14:00,30.0,24.3,30.07,WNW,289,2.3,4.6,79,0.00,OVC,,0.00,WeatherDisplay:10.37,2013-01-25 19:14:00,
2013-01-25 14:19:00,29.8,23.8,30.06,NW,312,9.6,9.6,78,0.00,OVC,,0.00,WeatherDisplay:10.37,2013-01-25 19:19:00,
2013-01-25 14:24:00,29.8,23.8,30.06,West,267,2.0,2.3,78,0.00,OVC,,0.00,WeatherDisplay:10.37,2013-01-25 19:24:00,
2013-01-25 14:29:00,29.8,23.8,30.06,West,267,2.4,6.9,78,0.00,OVC,,0.00,WeatherDisplay:10.37,2013-01-25 19:29:00,
2013-01-25 14:34:00,30.0,24.0,30.06,WSW,245,6.0,6.0,78,0.00,OVC,,0.00,WeatherDisplay:10.37,2013-01-25 19:34:00,
2013-01-25 14:39:00,30.0,24.0,30.06,NNW,335,4.5,4.9,78,0.00,OVC,,0.00,WeatherDisplay:10.37,2013-01-25 19:39:00,
2013-01-25 14:44:00,30.2,23.9,30.06,West,267,1.4,3.5,77,0.00,OVC,,0.00,WeatherDisplay:10.37,2013-01-25 19:44:00,
2013-01-25 14:49:00,30.4,24.0,30.05,West,267,1.3,1.3,77,0.00,OVC,,0.00,WeatherDisplay:10.37,2013-01-25 19:49:00,
2013-01-25 14:54:00,30.7,24.4,30.05,SW,222,2.0,2.3,77,0.00,OVC,,0.00,WeatherDisplay:10.37,2013-01-25 19:54:00,
2013-01-25 14:59:00,30.7,24.1,30.05,WNW,289,3.8,3.8,76,0.00,OVC,,0.00,WeatherDisplay:10.37,2013-01-25 19:59:00,
2013-01-25 15:04:00,30.6,23.9,30.06,SW,222,3.4,6.9,76,0.00,OVC,,0.00,WeatherDisplay:10.37,2013-01-25 20:04:00,
2013-01-25 15:09:00,30.0,23.4,30.06,WNW,289,6.9,6.9,76,0.00,OVC,,0.00,WeatherDisplay:10.37,2013-01-25 20:09:00,
2013-01-25 15:14:00,30.0,23.4,30.07,WSW,245,1.5,2.5,76,0.00,OVC,,0.00,WeatherDisplay:10.37,2013-01-25 20:14:00,
2013-01-25 15:19:00,30.0,23.4,30.08,NW,312,2.9,4.6,76,0.00,OVC,,0.00,WeatherDisplay:10.37,2013-01-25 20:19:00,
2013-01-25 15:24:00,29.7,23.3,30.08,WNW,289,6.5,6.9,77,0.00,OVC,,0.00,WeatherDisplay:10.37,2013-01-25 20:24:00,
2013-01-25 15:29:00,29.5,23.2,30.08,WSW,245,2.0,4.6,77,0.00,OVC,,0.00,WeatherDisplay:10.37,2013-01-25 20:29:00,
2013-01-25 15:34:00,29.5,23.2,30.08,NW,312,4.7,4.7,77,0.00,OVC,,0.00,WeatherDisplay:10.37,2013-01-25 20:34:00,
2013-01-25 15:39:00,29.3,23.0,30.08,WNW,289,0.0,3.8,77,0.00,OVC,,0.00,WeatherDisplay:10.37,2013-01-25 20:39:00,
2013-01-25 15:44:00,29.3,23.0,30.08,West,267,3.3,4.6,77,0.00,OVC,,0.00,WeatherDisplay:10.37,2013-01-25 20:44:00,
2013-01-25 15:49:00,29.3,23.0,30.08,WNW,289,1.3,1.3,77,0.00,OVC,,0.00,WeatherDisplay:10.37,2013-01-25 20:49:00,
2013-01-25 15:54:00,29.1,22.8,30.08,West,267,3.5,3.5,77,0.00,OVC,,0.00,WeatherDisplay:10.37,2013-01-25 20:54:00,
2013-01-25 15:59:00,29.1,23.1,30.09,West,267,0.0,3.5,78,0.00,OVC,,0.00,WeatherDisplay:10.37,2013-01-25 20:59:00,
2013-01-25 16:04:00,28.9,22.9,30.09,WNW,289,5.1,5.1,78,0.00,OVC,,0.00,WeatherDisplay:10.37,2013-01-25 21:04:00,
2013-01-25 16:09:00,28.9,22.9,30.08,NW,312,1.6,1.6,78,0.00,OVC,,0.00,WeatherDisplay:10.37,2013-01-25 21:09:00,
2013-01-25 16:14:00,28.9,22.9,30.10,SW,222,9.3,9.3,78,0.00,OVC,,0.00,WeatherDisplay:10.37,2013-01-25 21:14:00,
2013-01-25 16:19:00,28.9,22.9,30.10,SW,222,3.9,3.9,78,0.00,OVC,,0.00,WeatherDisplay:10.37,2013-01-25 21:19:00,
2013-01-25 16:24:00,28.9,22.9,30.10,NW,312,5.1,5.1,78,0.00,OVC,,0.00,WeatherDisplay:10.37,2013-01-25 21:24:00,
2013-01-25 16:29:00,28.6,22.6,30.10,West,267,2.6,5.8,78,0.00,OVC,,0.00,WeatherDisplay:10.37,2013-01-25 21:29:00,
2013-01-25 16:34:00,28.6,22.6,30.09,WNW,289,3.3,3.5,78,0.00,OVC,,0.00,WeatherDisplay:10.37,2013-01-25 21:34:00,
2013-01-25 16:39:00,28.6,22.6,30.10,NW,312,5.9,5.9,78,0.00,OVC,,0.00,WeatherDisplay:10.37,2013-01-25 21:39:00,
2013-01-25 16:44:00,28.6,22.6,30.10,West,267,2.6,3.5,78,0.00,OVC,,0.00,WeatherDisplay:10.37,2013-01-25 21:44:00,
2013-01-25 16:49:00,28.6,22.6,30.09,WNW,289,3.6,6.9,78,0.00,OVC,,0.00,WeatherDisplay:10.37,2013-01-25 21:49:00,
2013-01-25 16:54:00,28.6,22.6,30.10,WNW,289,3.6,6.9,78,0.00,OVC,,0.00,WeatherDisplay:10.37,2013-01-25 21:54:00,
2013-01-25 16:59:00,28.2,22.2,30.10,West,267,6.6,6.9,78,0.00,OVC,,0.00,WeatherDisplay:10.37,2013-01-25 21:59:00,
2013-01-25 17:04:00,28.2,22.2,30.09,NW,312,3.8,5.8,78,0.00,OVC,,0.00,WeatherDisplay:10.37,2013-01-25 22:04:00,
2013-01-25 17:09:00,28.2,22.2,30.09,NW,312,3.8,5.8,78,0.00,OVC,,0.00,WeatherDisplay:10.37,2013-01-25 22:09:00,
2013-01-25 17:14:00,28.2,22.2,30.09,WNW,289,1.8,2.3,78,0.00,OVC,,0.00,WeatherDisplay:10.37,2013-01-25 22:14:00,
2013-01-25 17:19:00,28.2,22.2,30.09,WSW,245,1.8,1.8,78,0.00,OVC,,0.00,WeatherDisplay:10.37,2013-01-25 22:19:00,
2013-01-25 17:24:00,28.2,22.2,30.09,SW,222,1.6,0.0,78,0.00,OVC,,0.00,WeatherDisplay:10.37,2013-01-25 22:24:00,
2013-01-25 17:29:00,28.2,22.2,30.09,SW,222,1.6,0.0,78,0.00,OVC,,0.00,WeatherDisplay:10.37,2013-01-25 22:29:00,
2013-01-25 17:34:00,28.2,22.2,30.09,West,267,3.1,3.5,78,0.00,OVC,,0.00,WeatherDisplay:10.37,2013-01-25 22:34:00,
2013-01-25 17:39:00,28.2,22.2,30.09,SW,222,3.0,3.0,78,0.00,OVC,,0.00,WeatherDisplay:10.37,2013-01-25 22:39:00,
2013-01-25 17:44:00,28.2,22.2,30.09,SW,222,3.0,3.0,78,0.00,OVC,,0.00,WeatherDisplay:10.37,2013-01-25 22:44:00,
2013-01-25 17:49:00,28.2,22.2,30.10,SW,222,3.0,3.0,78,0.00,OVC,,0.00,WeatherDisplay:10.37,2013-01-25 22:49:00,
2013-01-25 17:54:00,28.2,22.2,30.10,SW,222,3.0,3.0,78,0.00,OVC,,0.00,WeatherDisplay:10.37,2013-01-25 22:54:00,
2013-01-25 17:59:00,28.2,22.8,30.10,West,267,2.2,3.5,80,0.00,OVC,,0.00,WeatherDisplay:10.37,2013-01-25 22:59:00,
2013-01-25 18:04:00,28.6,23.2,30.10,West,267,3.0,3.0,80,0.00,OVC,,0.00,WeatherDisplay:10.37,2013-01-25 23:04:00,
2013-01-25 18:09:00,28.6,22.9,30.10,SW,222,2.3,3.5,79,0.00,BKN,,0.00,WeatherDisplay:10.37,2013-01-25 23:09:00,
2013-01-25 18:14:00,28.6,22.9,30.10,WSW,245,0.8,3.5,79,0.00,BKN,,0.00,WeatherDisplay:10.37,2013-01-25 23:14:00,
2013-01-25 18:19:00,28.6,22.9,30.10,WSW,245,0.8,3.5,79,0.00,BKN,,0.00,WeatherDisplay:10.37,2013-01-25 23:19:00,
2013-01-25 18:24:00,28.6,22.9,30.10,SW,222,3.1,3.5,79,0.00,BKN,,0.00,WeatherDisplay:10.37,2013-01-25 23:24:00,
2013-01-25 18:29:00,28.6,22.9,30.10,SW,222,3.1,3.1,79,0.00,BKN,,0.00,WeatherDisplay:10.37,2013-01-25 23:29:00,
2013-01-25 18:34:00,28.6,22.9,30.10,West,267,3.3,3.5,79,0.00,BKN,,0.00,WeatherDisplay:10.37,2013-01-25 23:34:00,
2013-01-25 18:39:00,28.2,22.2,30.11,WSW,245,4.5,4.6,78,0.00,BKN,,0.00,WeatherDisplay:10.37,2013-01-25 23:39:00,
2013-01-25 18:44:00,28.2,22.2,30.11,WSW,245,2.7,4.6,78,0.00,BKN,,0.00,WeatherDisplay:10.37,2013-01-25 23:44:00,
2013-01-25 18:49:00,28.0,22.1,30.11,SW,222,4.7,4.7,78,0.00,BKN,,0.00,WeatherDisplay:10.37,2013-01-25 23:49:00,
2013-01-25 18:54:00,27.7,21.7,30.12,West,267,0.0,3.6,78,0.00,BKN,,0.00,WeatherDisplay:10.37,2013-01-25 23:54:00,
2013-01-25 18:59:00,27.5,21.5,30.12,WSW,245,0.0,0.0,78,0.00,BKN,,0.00,WeatherDisplay:10.37,2013-01-25 23:59:00,
2013-01-25 19:04:00,27.3,21.4,30.13,SW,222,1.3,1.3,78,0.00,BKN,,0.00,WeatherDisplay:10.37,2013-01-26 00:04:00,
2013-01-25 19:09:00,27.1,21.5,30.12,West,267,0.0,2.7,79,0.00,SCT,,0.00,WeatherDisplay:10.37,2013-01-26 00:09:00,
2013-01-25 19:14:00,27.1,21.5,30.12,SW,222,2.0,2.3,79,0.00,SCT,,0.00,WeatherDisplay:10.37,2013-01-26 00:14:00,
2013-01-25 19:19:00,27.0,21.3,30.13,WSW,245,3.6,3.6,79,0.00,SCT,,0.00,WeatherDisplay:10.37,2013-01-26 00:19:00,
2013-01-25 19:24:00,27.0,21.3,30.13,WSW,245,3.2,3.5,79,0.00,SCT,,0.00,WeatherDisplay:10.37,2013-01-26 00:24:00,
2013-01-25 19:29:00,26.8,21.1,30.13,SW,222,3.2,4.7,79,0.00,SCT,,0.00,WeatherDisplay:10.37,2013-01-26 00:29:00,
2013-01-25 19:34:00,26.8,21.1,30.14,WSW,245,5.5,6.9,79,0.00,SCT,,0.00,WeatherDisplay:10.37,2013-01-26 00:34:00,
2013-01-25 19:39:00,26.4,20.8,30.14,SW,222,2.0,2.3,79,0.00,SCT,,0.00,WeatherDisplay:10.37,2013-01-26 00:39:00,
2013-01-25 19:44:00,26.4,20.8,30.14,SW,222,3.9,3.9,79,0.00,SCT,,0.00,WeatherDisplay:10.37,2013-01-26 00:44:00,
2013-01-25 19:49:00,26.2,20.6,30.13,SW,222,3.0,3.5,79,0.00,SCT,,0.00,WeatherDisplay:10.37,2013-01-26 00:49:00,
2013-01-25 19:54:00,26.2,20.6,30.14,WSW,245,3.6,3.6,79,0.00,SCT,,0.00,WeatherDisplay:10.37,2013-01-26 00:54:00,
2013-01-25 19:59:00,26.2,20.6,30.14,SSW,199,5.1,5.1,79,0.00,SCT,,0.00,WeatherDisplay:10.37,2013-01-26 00:59:00,
2013-01-25 20:04:00,25.9,20.3,30.14,SW,222,4.1,5.8,79,0.00,SCT,,0.00,WeatherDisplay:10.37,2013-01-26 01:04:00,
2013-01-25 20:09:00,25.9,20.3,30.14,SW,222,2.8,3.5,79,0.00,CLR,,0.00,WeatherDisplay:10.37,2013-01-26 01:09:00,
2013-01-25 20:14:00,25.7,20.1,30.14,SW,222,2.4,3.5,79,0.00,CLR,,0.00,WeatherDisplay:10.37,2013-01-26 01:14:00,
2013-01-25 20:19:00,25.5,19.9,30.14,SW,222,6.0,6.0,79,0.00,CLR,,0.00,WeatherDisplay:10.37,2013-01-26 01:19:00,
2013-01-25 20:24:00,25.5,19.9,30.14,SW,222,0.0,2.3,79,0.00,CLR,,0.00,WeatherDisplay:10.37,2013-01-26 01:24:00,
2013-01-25 20:29:00,25.5,19.9,30.14,SW,222,3.4,3.5,79,0.00,CLR,,0.00,WeatherDisplay:10.37,2013-01-26 01:29:00,
2013-01-25 20:34:00,25.3,19.7,30.15,SW,222,3.5,4.0,79,0.00,CLR,,0.00,WeatherDisplay:10.37,2013-01-26 01:34:00,
2013-01-25 20:39:00,25.3,19.7,30.14,SSW,199,1.8,2.3,79,0.00,CLR,,0.00,WeatherDisplay:10.37,2013-01-26 01:39:00,
2013-01-25 20:44:00,25.3,19.7,30.15,SW,222,0.7,2.3,79,0.00,CLR,,0.00,WeatherDisplay:10.37,2013-01-26 01:44:00,
2013-01-25 20:49:00,25.3,19.7,30.15,SW,222,2.9,3.5,79,0.00,CLR,,0.00,WeatherDisplay:10.37,2013-01-26 01:49:00,
2013-01-25 20:54:00,25.0,19.4,30.14,SW,222,3.5,3.5,79,0.00,CLR,,0.00,WeatherDisplay:10.37,2013-01-26 01:54:00,
2013-01-25 20:59:00,25.0,19.4,30.14,West,267,3.1,3.5,79,0.00,CLR,,0.00,WeatherDisplay:10.37,2013-01-26 01:59:00,
2013-01-25 21:04:00,25.0,19.4,30.14,WSW,245,1.6,1.6,79,0.00,CLR,,0.00,WeatherDisplay:10.37,2013-01-26 02:04:00,
2013-01-25 21:09:00,24.6,19.0,30.14,WSW,245,1.6,1.6,79,0.00,CLR,,0.00,WeatherDisplay:10.37,2013-01-26 02:09:00,
2013-01-25 21:14:00,24.6,19.0,30.14,South,177,3.1,3.5,79,0.00,CLR,,0.00,WeatherDisplay:10.37,2013-01-26 02:14:00,
2013-01-25 21:19:00,24.6,19.0,30.14,SW,222,0.1,4.6,79,0.00,CLR,,0.00,WeatherDisplay:10.37,2013-01-26 02:19:00,
2013-01-25 21:24:00,24.6,19.3,30.14,West,267,4.4,4.4,80,0.00,CLR,,0.00,WeatherDisplay:10.37,2013-01-26 02:24:00,
2013-01-25 21:29:00,24.6,19.3,30.14,SW,222,2.9,3.5,80,0.00,CLR,,0.00,WeatherDisplay:10.37,2013-01-26 02:29:00,
2013-01-25 21:34:00,24.4,19.2,30.14,SW,222,2.9,0.0,80,0.00,CLR,,0.00,WeatherDisplay:10.37,2013-01-26 02:34:00,
2013-01-25 21:39:00,24.4,19.2,30.14,SW,222,0.0,0.0,80,0.00,CLR,,0.00,WeatherDisplay:10.37,2013-01-26 02:39:00,
2013-01-25 21:44:00,24.4,19.2,30.15,SSW,199,3.5,3.5,80,0.00,CLR,,0.00,WeatherDisplay:10.37,2013-01-26 02:44:00,
2013-01-25 21:49:00,24.4,19.2,30.15,SSW,199,0.0,0.0,80,0.00,CLR,,0.00,WeatherDisplay:10.37,2013-01-26 02:49:00,
2013-01-25 21:54:00,24.4,19.2,30.16,SSW,199,2.4,2.4,80,0.00,CLR,,0.00,WeatherDisplay:10.37,2013-01-26 02:54:00,
2013-01-25 21:59:00,24.4,19.2,30.15,SSW,199,2.7,2.7,80,0.00,CLR,,0.00,WeatherDisplay:10.37,2013-01-26 02:59:00,
2013-01-25 22:04:00,24.1,18.8,30.16,West,267,2.0,2.3,80,0.00,CLR,,0.00,WeatherDisplay:10.37,2013-01-26 03:04:00,
2013-01-25 22:09:00,24.1,18.8,30.16,South,177,5.4,6.9,80,0.00,CLR,,0.00,WeatherDisplay:10.37,2013-01-26 03:09:00,
2013-01-25 22:14:00,24.1,18.8,30.16,South,177,3.8,4.6,80,0.00,CLR,,0.00,WeatherDisplay:10.37,2013-01-26 03:14:00,
2013-01-25 22:19:00,24.1,18.8,30.16,SW,222,3.2,3.5,80,0.00,CLR,,0.00,WeatherDisplay:10.37,2013-01-26 03:19:00,
2013-01-25 22:24:00,23.9,18.6,30.15,South,177,3.5,3.8,80,0.00,CLR,,0.00,WeatherDisplay:10.37,2013-01-26 03:24:00,
2013-01-25 22:29:00,23.9,18.6,30.16,South,177,0.9,1.1,80,0.00,CLR,,0.00,WeatherDisplay:10.37,2013-01-26 03:29:00,
2013-01-25 22:34:00,23.9,18.6,30.16,WSW,245,3.8,3.8,80,0.00,CLR,,0.00,WeatherDisplay:10.37,2013-01-26 03:34:00,
2013-01-25 22:39:00,23.9,18.6,30.16,SW,222,3.1,3.5,80,0.00,CLR,,0.00,WeatherDisplay:10.37,2013-01-26 03:39:00,
2013-01-25 22:44:00,23.9,18.6,30.16,SSW,199,3.1,4.6,80,0.00,CLR,,0.00,WeatherDisplay:10.37,2013-01-26 03:44:00,
2013-01-25 22:49:00,23.9,18.6,30.17,SW,222,3.8,3.8,80,0.00,CLR,,0.00,WeatherDisplay:10.37,2013-01-26 03:49:00,
2013-01-25 22:54:00,23.7,18.5,30.16,WSW,245,4.5,4.6,80,0.00,CLR,,0.00,WeatherDisplay:10.37,2013-01-26 03:54:00,
2013-01-25 22:59:00,23.9,18.6,30.16,South,177,2.5,3.5,80,0.00,CLR,,0.00,WeatherDisplay:10.37,2013-01-26 03:59:00,
2013-01-25 23:04:00,23.9,18.6,30.17,WSW,245,4.0,4.0,80,0.00,CLR,,0.00,WeatherDisplay:10.37,2013-01-26 04:04:00,
2013-01-25 23:09:00,24.1,19.1,30.17,South,177,2.8,2.8,81,0.00,CLR,,0.00,WeatherDisplay:10.37,2013-01-26 04:09:00,
2013-01-25 23:14:00,24.4,19.4,30.17,WSW,245,2.5,2.5,81,0.00,CLR,,0.00,WeatherDisplay:10.37,2013-01-26 04:14:00,
2013-01-25 23:19:00,24.6,19.6,30.17,NW,312,4.5,4.5,81,0.00,CLR,,0.00,WeatherDisplay:10.37,2013-01-26 04:19:00,
2013-01-25 23:24:00,24.6,19.6,30.17,SE,132,5.8,5.8,81,0.00,CLR,,0.00,WeatherDisplay:10.37,2013-01-26 04:24:00,
2013-01-25 23:29:00,25.0,20.0,30.17,West,267,1.5,1.5,81,0.00,CLR,,0.00,WeatherDisplay:10.37,2013-01-26 04:29:00,
2013-01-25 23:34:00,25.3,20.3,30.17,SSW,199,7.4,7.4,81,0.00,CLR,,0.00,WeatherDisplay:10.37,2013-01-26 04:34:00,
2013-01-25 23:39:00,25.3,20.3,30.18,SSW,199,3.1,3.5,81,0.00,CLR,,0.00,WeatherDisplay:10.37,2013-01-26 04:39:00,
2013-01-25 23:44:00,25.5,20.5,30.18,South,177,5.0,5.0,81,0.00,CLR,,0.00,WeatherDisplay:10.37,2013-01-26 04:44:00,
2013-01-25 23:49:00,25.5,20.5,30.18,South,177,4.7,4.7,81,0.00,CLR,,0.00,WeatherDisplay:10.37,2013-01-26 04:49:00,
2013-01-25 23:54:00,25.5,20.5,30.18,WSW,245,3.8,3.8,81,0.00,CLR,,0.00,WeatherDisplay:10.37,2013-01-26 04:54:00,
2013-01-25 23:59:00,25.5,20.5,30.17,South,177,1.6,5.8,81,0.00,CLR,,0.00,WeatherDisplay:10.37,2013-01-26 04:59:00,